This demonstration page uses our WeatherBlox Daily Observations layout. Learn more.

Left ArrowRight Arrow

30.21309, -93.2044

Hourly Observations for May 2, 2015

Temp ( °F °C ) Dew Point ( °F °C ) Humidity (%) Winds ( mph kmh ) Pressure ( in mb ) Visibility ( mi km ) Precip ( " mm )
12:15 am 00:15 Mostly Cloudy 71 21.5 57 14 62 62 WSW 6 9 30.06 1018 10 16 0.00 0.00
12:35 am 00:35 Mostly Cloudy 70 20.9 58 14.3 66 66 W 3 6 30.06 1018 10 16 0.00 0.00
12:55 am 00:55 Mostly Cloudy 70 20.9 58 14.3 66 66 WSW 5 7 30.06 1018 10 16 0.00 0.00
1:15 am 01:15 Partly Cloudy 70 21 57 13.7 63 63 WSW 7 11 30.06 1018 10 16 0.00 0.00
1:35 am 01:35 Partly Cloudy 70 20.9 56 13.5 63 63 WSW 5 7 30.06 1018 10 16 0.00 0.00
1:55 am 01:55 Mostly Cloudy 66 18.9 58 14.4 75 75 NNE 3 6 30.06 1018 10 16 0.00 0.00
2:15 am 02:15 Partly Cloudy 66 18.7 58 14.4 76 76 NE 3 6 30.06 1018 10 16 0.00 0.00
2:35 am 02:35 Clear 64 17.5 58 14.6 83 83 N 3 6 30.06 1018 10 16 0.00 0.00
2:55 am 02:55 Clear 63 17.2 58 14.3 83 83 Calm 30.06 1018 10 16 0.00 0.00
3:15 am 03:15 Partly Cloudy 64 17.5 58 14.2 81 81 Calm 30.06 1018 10 16 0.00 0.00
3:35 am 03:35 Partly Cloudy 63 17.4 58 14.2 82 82 Calm 30.06 1018 10 16 0.00 0.00
3:55 am 03:55 Partly Cloudy 63 17.3 58 14.2 82 82 Calm 30.06 1018 10 16 0.00 0.00
4:15 am 04:15 Clear 61 15.9 58 14.2 90 90 Calm 30.06 1018 10 16 0.00 0.00
4:35 am 04:35 Clear 61 16.2 57 14 87 87 Calm 30.06 1018 10 16 0.00 0.00
4:55 am 04:55 Clear 61 16 57 14.1 89 89 Calm 30.06 1018 10 16 0.00 0.00
5:15 am 05:15 Clear 60 15.4 57 14.1 92 92 ENE 5 7 30.06 1018 10 16 0.00 0.00
6:00 am 06:00 Mostly Clear 61 16 57 14 88 88 Calm 30.06 1018 10 16 0.00 0.00
6:50 am 06:50 Mostly Sunny 61 16 57 14 88 88 Calm 30.06 1018 10 16 0.00 0.00
7:45 am 07:45 Mostly Sunny 64 18 61 16 88 88 Calm 30.09 1019 10 16 0.00 0.00
8:45 am 08:45 Mostly Sunny 70 21 61 16 73 73 E 5 7 30.09 1019 10 16 0.00 0.00
9:45 am 09:45 Partly Cloudy 73 23 59 15 61 61 E 5 7 30.09 1019 10 16 0.00 0.00
10:50 am 10:50 Partly Cloudy 75 24 61 16 61 61 Calm 30.09 1019 10 16 0.00 0.00
11:50 am 11:50 Partly Cloudy 79 26 63 17 58 58 Calm 30.09 1019 10 16 0.00 0.00
12:45 pm 12:45 Partly Cloudy 81 27 59 15 48 48 Calm 30.09 1019 10 16 0.00 0.00
1:45 pm 13:45 Mostly Cloudy 81 27 57 14 45 45 SW 8 13 30.06 1018 10 16 0.00 0.00
9:50 pm 21:50 Mostly Clear 70 21 59 15 69 69 SSW 5 7 30.03 1017 10 16 0.00 0.00
10:15 pm 22:15 Clear 70 21 59 15 69 69 SW 3 6 30.06 1018 10 16 0.00 0.00
10:35 pm 22:35 Clear 69 20.5 59 15.1 71 71 Calm 30.06 1018 10 16 0.00 0.00
10:55 pm 22:55 Clear 67 19.3 59 15.2 77 77 Calm 30.06 1018 10 16 0.00 0.00
11:15 pm 23:15 Clear 66 18.7 60 15.5 82 82 Calm 30.06 1018 10 16 0.00 0.00
11:35 pm 23:35 Clear 65 18.5 60 15.5 83 83 Calm 30.06 1018 10 16 0.00 0.00
11:55 pm 23:55 Clear 64 17.8 60 15.4 86 86 Calm 30.06 1018 10 16 0.00 0.00

Powered by AerisWeather